Regional Weather Roundup
Issued by NWS

Home | Current Version | Previous Version | Text Only | Print | Product List | Glossary On
Versions: 1 2 3 4 5 6 7 8 9 10 11 12 13 14 15 16 17 18 19 20 21 22 23 24 25 26 27 28 29 30 31 32 33 34 35 36 37 38 39 40 41 42 43 44 45 46 47 48 49 50
000
ASUS44 KFWD 221315
RWRTX
NORTH TEXAS HOURLY WEATHER ROUNDUP
NATIONAL WEATHER SERVICE FORT WORTH TX
800 AM CDT TUE AUG 22 2017

NOTE: "FAIR" INDICATES FEW OR NO CLOUDS BELOW 12,000 FEET WITH NO
SIGNIFICANT WEATHER AND/OR OBSTRUCTIONS TO VISIBILITY.

TXZ118-119-221400-
DALLAS/FORT WORTH METROPLEX

CITY           SKY/WX    TMP DP  RH WIND       PRES   REMARKS
DFW AIRPORT    MOSUNNY   81  73  76 SW9       30.04R
DALLAS LOVE    MOSUNNY   82  72  71 SW5       30.05R
FTW MEACHAM    SUNNY     79  73  82 S8        30.05R
DAL-EXECUTIVE  SUNNY     80  74  81 CALM      30.05R
FTW-ALLIANCE   MOSUNNY   78  72  81 S6        30.05R
FTW-NAS-JRB    MOSUNNY   78  71  79 S3        30.06
FTW-SPINKS     SUNNY     77  72  83 CALM      30.07R
ARLINGTON      SUNNY     78  74  87 S5        30.05R
GRAND PRAIRIE  SUNNY     79  70  73 S3        30.07R
ADDISON        SUNNY     81  72  74 SW8       30.06R
MESQUITE       SUNNY     75  73  94 CALM      30.06R
LANCASTER      SUNNY     75  71  86 CALM      30.06S
$$

TXZ091>094-102>105-117-120-121-131>134-221400-
NORTH CENTRAL TEXAS

CITY           SKY/WX    TMP DP  RH WIND       PRES   REMARKS
SHRMAN/DENISON SUNNY     78  72  82 S8        30.06S
GAINESVILLE    SUNNY     74  71  89 S5        30.07S
BOWIE          SUNNY     73  70  89 S3        30.06S
BRIDGEPORT       N/A     74  70  86 CALM      30.07S
DECATUR        SUNNY     78  69  75 S8          N/A
DENTON         SUNNY     76  73  91 S6        30.05R
MCKINNEY       SUNNY     76  75  97 CALM      30.05R
BONHAM         SUNNY     75  72  88 S7        30.05S
GREENVILLE     SUNNY     81  73  78 S5        30.06S
ROCKWALL       SUNNY     77  74  88 SW6       30.06R
TERRELL        SUNNY     77  73  87 CALM      30.06R
WAXAHACHIE     SUNNY     75  74  97 CALM      30.07S
CLEBURNE       SUNNY     77  75  94 CALM      30.08S
GRANBURY       SUNNY     78  71  77 CALM      30.08R
$$

TXZ083>090-098>101-113>116-127>130-139>142-154-155-221400-
WESTERN NORTH TEXAS

CITY           SKY/WX    TMP DP  RH WIND       PRES   REMARKS
WICHITA FALLS  MOSUNNY   76  67  73 W6        30.05R
WF-KICKAPOO    SUNNY     76  67  74 CALM      30.08R
VERNON         CLOUDY    77  64  64 S5        30.06R
ABILENE        SUNNY     72  67  84 SE7       30.10R
ABILENE-DYESS  PTCLDY    73  67  80 S5        30.08S
GRAHAM         SUNNY     76  68  75 CALM      30.05S
BRECKENRIDGE   SUNNY     77  66  70 S3        30.07R
CISCO          SUNNY     72  68  88 S5        30.10R
EASTLAND       SUNNY     72  68  88 CALM      30.09R
RANGER         SUNNY     73  68  86 SW6       30.09R
MINERAL WELLS  SUNNY     75  69  81 S5        30.05R
STEPHENVILLE   SUNNY     72  68  87 CALM      30.11S
COMANCHE       SUNNY     74  70  87 CALM      30.09R
BROWNWOOD      SUNNY     73  68  83 CALM      30.09R
COLEMAN        SUNNY     72  64  76 CALM      30.10R
$$

TXZ143>147-156>162-174-175-221400-
CENTRAL TEXAS

CITY           SKY/WX    TMP DP  RH WIND       PRES   REMARKS
WACO           SUNNY     78  73  84 S8        30.05R
WACO-TSTC      SUNNY     75  75 100 CALM      30.06R
WACO-MCGREGOR  SUNNY     78  73  84 S6        30.06R
HILLSBORO      SUNNY     78  73  87 S6        30.06S
CORSICANA      SUNNY     78  74  87 S3        30.06S
MEXIA          SUNNY     75  73  93 SW5       30.06S
HEARNE         SUNNY     74  74 100 CALM      30.07R
CAMERON        SUNNY     77  74  90 W3        30.06R
TEMPLE         SUNNY     77  73  87 S5        30.07R
KILLEEN        SUNNY     77  72  83 S5        30.07R
KILLEEN-SKYLRK SUNNY     77  72  84 S5        30.07R
FORT HOOD      SUNNY     75  70  85 S5        30.04R
HAMILTON       SUNNY     74  72  95 CALM      30.09S
LAMPASAS       SUNNY     76  72  89 CALM      30.07R
$$

TXZ095>097-106>112-122>126-135>138-148>153-164>167-221400-
EAST TEXAS

CITY           SKY/WX    TMP DP  RH WIND       PRES   REMARKS
PARIS          SUNNY     78  74  87 S6        30.07R
SULPHUR SPRNGS SUNNY     78  74  87 SW6       30.08S
MOUNT PLEASANT SUNNY    N/A N/A N/A CALM      30.07S
GILMER         SUNNY     75  73  92 CALM      30.07R
MINEOLA        SUNNY     75  73  94 CALM      30.06S
TYLER          SUNNY     78  75  90 S5        30.06R
LONGVIEW       SUNNY     76  75  97 CALM      30.06R
MARSHALL         N/A     73  71  94 CALM      30.09R
ATHENS         SUNNY     73  73 100 CALM      30.05S
PALESTINE      SUNNY     74  74 100 CALM      30.08R
JACKSONVILLE   SUNNY     76  74  96 CALM      30.09S
HENDERSON      SUNNY     73  73  98 MISG      30.08R FOG
CENTER         SUNNY     78  76  95 MISG      30.08R
NACOGDOCHES    SUNNY     73  72  96 CALM      30.08R FOG
LUFKIN         SUNNY     75  73  93 CALM      30.07R
$$

SUPPLEMENTAL OBSERVATIONS (NWS FORT WORTH AREA)

CITY           SKY/WX    TMP DP  RH WIND       PRES   REMARKS
DENISON DAM      N/A     79  70  73 SW3         N/A
CADDO GRASSLND   N/A     79  73  83 S6          N/A
PAT MAYSE LAKE   N/A     79  77  94 S9          N/A
GREENVILLE       N/A     79  72  78 SW6         N/A
CEDAR HILL       N/A     79  72  78 SW3         N/A
LBJ GRASSLAND    N/A     75  68  78 S3          N/A
POSSUM KINGDOM   N/A     79  68  69 S6          N/A
GRANBURY         N/A     81  72  74 SE3         N/A
COMANCHE         N/A     79  70  73 S1          N/A
MCGREGOR         N/A     77  72  83 SW2         N/A
TEMPLE           N/A     79  73  83 SW3         N/A
LAKE LIMESTONE   N/A     79  73  83 S3          N/A
ATHENS           N/A     79  75  89 S3          N/A
$$

SUPPLEMENTAL OBSERVATIONS (NWS NORMAN AREA)

CITY           SKY/WX    TMP DP  RH WIND       PRES   REMARKS
GOODLETT         N/A     75  66  75 SW10      30.06S
ODELL            N/A     77  68  72 SW8       30.07R
CROWELL          N/A     76  69  78 SW8       30.06S
KNOX CITY        N/A     78  65  64 W2        30.08S
SEYMOUR          N/A     78  67  68 S6        30.07S
MILLERS CREEK    N/A     79  68  69 S6          N/A
$$

SUPPLEMENTAL OBSERVATIONS (NWS SAN ANGELO AREA)

CITY           SKY/WX    TMP DP  RH WIND       PRES   REMARKS
WEINERT          N/A     77  67  70 S2        30.10R
HASKELL          N/A     77  64  65 E2        30.10R
THROCKMORTON     N/A     76  67  74 SW5       30.08S
STAMFORD         N/A     76  66  71 S6        30.10R
CLYDE            N/A     74  67  77 SW8       30.12S
HAMBY            N/A     75  64  69 S8          N/A
IVIE RESERVOIR   N/A     77  68  73 W1          N/A
COLORADO BEND    N/A     75  66  73 S5          N/A
$$

SUPPLEMENTAL OBSERVATIONS (NWS SHREVEPORT AREA)

CITY           SKY/WX    TMP DP  RH WIND       PRES   REMARKS
CLARKSVILLE      N/A     77  73  88 S3          N/A
TEXARKANA        N/A     75  73  94 CALM        N/A
LINDEN           N/A     79  75  89 CALM        N/A
CADDO LAKE       N/A     75  73  94 CALM        N/A
GILMER           N/A     79  73  83 CALM        N/A
HENDERSON        N/A     75  72  88 CALM        N/A
LUFKIN           N/A     77  75  94 MISG        N/A
N SABINE NF      N/A     72  70  94 MISG        N/A
S SABINE NF      N/A     79  75  89 CALM        N/A
$$

SUPPLEMENTAL OBSERVATIONS ARE A COLLECTION OF AUTOMATED INSTRUMENTS
THAT ARE MAINTAINED BY A VARIETY OF FEDERAL AND STATE AGENCIES.
CERTAIN ELEMENTS...SUCH AS HUMIDITY VALUES AND SUSTAINED WIND
SPEEDS...MAY BE APPROXIMATED.




USA.gov is the U.S. government's official web portal to all federal, state and local government web resources and services.